Date String (YYYY-MM-DD hh:mm:ss) UTC,Instrument flags,absolute air pressure of the measurement (hPa),sample flow rate (lpm),inlet stack bypass flow (lpm),air temperature of the measurement (°C),ambient temperature measured by the external sensor (°C),aerosol sample conditioner tube jacket temperature (°C),OPC LED temperature (°C),internal box temperature (°C),relative humidity of the measurement (%),span deviation,mass concentration of particles derived from Lorenz-Mie calculation of OPC scattering (μg/m³),mass concentration of particles derived from Lorenz-Mie calculation of OPC scattering (μg/m³),mass concentration of particles derived from Lorenz-Mie calculation of OPC scattering (μg/m³)
DateTimeUTC,F1_M11,P_M11,Q1_M11,Q2_M11,T1_M11,T2_M11,T3_M11,T4_M11,T5_M11,U1_M11,ZSPAN_M11,X2_M11,X0_M11,X1_M11
2023-07-28 06:00:00,SystemResetWarning,0835.6,5.00,000.00,029.5,028.0,000.0,037.9,031.0,30.9,0000.0,0005.28,0013.94,0003.87
2023-07-28 06:01:00,SystemResetWarning,0835.7,5.00,000.00,029.6,028.1,000.0,037.9,031.0,29.7,0000.0,0005.29,0013.81,0003.86
2023-07-28 06:02:00,SystemResetWarning,0835.7,5.00,000.00,029.6,028.2,000.0,037.9,031.1,29.4,0000.0,0005.27,0014.01,0003.84
2023-07-28 06:03:00,SystemResetWarning,0835.7,4.98,000.00,029.6,027.6,000.0,037.9,031.0,29.7,0000.0,0005.26,0013.93,0003.81
2023-07-28 06:04:00,SystemResetWarning,0835.6,5.00,000.00,029.5,025.8,000.0,037.8,030.8,30.8,0000.0,0005.25,0013.69,0003.79
2023-07-28 06:05:00,SystemResetWarning,0835.8,5.01,000.00,029.5,025.2,000.0,037.7,030.6,30.3,0000.0,0005.27,0013.15,0003.79
2023-07-28 06:06:00,SystemResetWarning,0835.7,5.01,000.00,029.4,025.3,000.0,037.7,030.4,30.4,0000.0,0005.28,0011.78,0003.79
2023-07-28 06:07:00,SystemResetWarning,0835.8,5.00,000.00,029.3,025.7,000.0,037.7,030.4,31.5,0000.0,0005.26,0011.77,0003.76
2023-07-28 06:08:00,SystemResetWarning,0835.8,4.99,000.00,029.3,026.1,000.0,037.7,030.5,31.8,0000.0,0005.16,0011.25,0003.72
2023-07-28 06:09:00,SystemResetWarning,0835.9,5.00,000.00,029.3,026.5,000.0,037.7,030.6,32.3,0000.0,0005.06,0010.86,0003.66
2023-07-28 06:10:00,SystemResetWarning,0835.8,5.00,000.00,029.3,026.8,000.0,037.7,030.6,32.2,0000.0,0004.97,0010.86,0003.60
2023-07-28 06:11:00,SystemResetWarning,0835.8,4.99,000.00,029.3,027.1,000.0,037.7,030.7,32.3,0000.0,0004.82,0010.98,0003.54
2023-07-28 06:12:00,SystemResetWarning,0835.8,5.00,000.00,029.3,027.3,000.0,037.7,030.7,31.9,0000.0,0004.62,0010.64,0003.44
2023-07-28 06:13:00,SystemResetWarning,0835.9,5.00,000.00,029.3,027.5,000.0,037.7,030.8,31.4,0000.0,0004.47,0010.30,0003.35
2023-07-28 06:14:00,SystemResetWarning,0835.8,5.00,000.00,029.3,027.7,000.0,037.7,030.8,31.6,0000.0,0004.30,0010.00,0003.26
2023-07-28 06:15:00,SystemResetWarning,0835.8,4.99,000.00,029.3,027.8,000.0,037.7,030.9,31.6,0000.0,0004.13,0010.31,0003.17
2023-07-28 06:16:00,SystemResetWarning,0835.7,5.00,000.00,029.4,027.9,000.0,037.8,030.9,31.3,0000.0,0003.96,0009.97,0003.04
2023-07-28 06:17:00,SystemResetWarning,0835.7,4.99,000.00,029.4,028.0,000.0,037.8,031.0,31.1,0000.0,0003.78,0009.94,0002.86
2023-07-28 06:18:00,SystemResetWarning,0835.7,5.00,000.00,029.4,028.1,000.0,037.8,031.0,31.6,0000.0,0003.67,0009.58,0002.74
2023-07-28 06:19:00,SystemResetWarning,0835.7,5.00,000.00,029.5,028.2,000.0,037.8,031.0,31.3,0000.0,0003.60,0009.26,0002.68
2023-07-28 06:20:00,SystemResetWarning,0835.6,4.99,000.00,029.5,027.7,000.0,037.8,031.0,31.1,0000.0,0003.58,0009.32,0002.65
2023-07-28 06:21:00,SystemResetWarning,0835.6,5.00,000.00,029.4,025.9,000.0,037.7,030.7,30.8,0000.0,0003.53,0009.13,0002.58
2023-07-28 06:22:00,SystemResetWarning,0835.5,5.00,000.00,029.3,025.2,000.0,037.6,030.5,30.3,0000.0,0003.52,0008.50,0002.52
2023-07-28 06:23:00,SystemResetWarning,0835.6,5.01,000.00,029.2,025.3,000.0,037.6,030.3,30.0,0000.0,0003.58,0008.66,0002.53
2023-07-28 06:24:00,SystemResetWarning,0835.5,5.01,000.00,029.2,025.6,000.0,037.6,030.3,29.9,0000.0,0003.59,0008.66,0002.52
2023-07-28 06:25:00,SystemResetWarning,0835.5,4.99,000.00,029.1,026.0,000.0,037.6,030.4,30.6,0000.0,0003.58,0008.59,0002.50
2023-07-28 06:26:00,SystemResetWarning,0835.5,5.00,000.00,029.1,026.4,000.0,037.6,030.5,30.6,0000.0,0003.58,0008.09,0002.50
2023-07-28 06:27:00,SystemResetWarning,0835.5,5.02,000.00,029.1,026.8,000.0,037.6,030.6,30.5,0000.0,0003.60,0007.90,0002.52
2023-07-28 06:28:00,SystemResetWarning,0835.5,4.99,000.00,029.1,027.0,000.0,037.6,030.6,30.4,0000.0,0003.63,0007.41,0002.54
2023-07-28 06:29:00,SystemResetWarning,0835.6,4.99,000.00,029.2,027.3,000.0,037.6,030.7,30.3,0000.0,0003.59,0007.33,0002.53
2023-07-28 06:30:00,SystemResetWarning,0835.6,5.01,000.00,029.2,027.5,000.0,037.6,030.7,30.0,0000.0,0003.52,0007.06,0002.48
2023-07-28 06:31:00,SystemResetWarning,0835.6,5.01,000.00,029.2,027.6,000.0,037.6,030.8,30.3,0000.0,0003.46,0006.65,0002.43
2023-07-28 06:32:00,SystemResetWarning,0835.6,5.00,000.00,029.2,027.8,000.0,037.7,030.8,30.5,0000.0,0003.44,0006.30,0002.41
2023-07-28 06:33:00,SystemResetWarning,0835.6,5.00,000.00,029.3,027.9,000.0,037.7,030.9,30.1,0000.0,0003.40,0006.14,0002.41
2023-07-28 06:34:00,SystemResetWarning,0835.6,5.00,000.00,029.3,028.0,000.0,037.7,030.9,30.7,0000.0,0003.34,0005.93,0002.38
2023-07-28 06:35:00,SystemResetWarning,0835.7,5.00,000.00,029.3,028.1,000.0,037.7,030.9,30.8,0000.0,0003.30,0005.77,0002.36
2023-07-28 06:36:00,SystemResetWarning,0835.7,5.00,000.00,029.4,028.1,000.0,037.7,031.0,31.0,0000.0,0003.30,0005.79,0002.37
2023-07-28 06:37:00,SystemResetWarning,0835.8,5.00,000.00,029.4,028.2,000.0,037.7,031.0,31.4,0000.0,0003.30,0005.96,0002.36
2023-07-28 06:38:00,SystemResetWarning,0835.7,4.99,000.00,029.4,028.2,000.0,037.8,031.0,31.4,0000.0,0003.27,0005.86,0002.33
2023-07-28 06:39:00,SystemResetWarning,0835.6,4.98,000.00,029.4,027.1,000.0,037.7,030.9,31.4,0000.0,0003.22,0005.47,0002.29
2023-07-28 06:40:00,SystemResetWarning,0835.6,5.01,000.00,029.4,025.5,000.0,037.6,030.6,31.6,0000.0,0003.22,0005.51,0002.27
2023-07-28 06:41:00,SystemResetWarning,0835.6,5.01,000.00,029.3,025.1,000.0,037.5,030.4,31.1,0000.0,0003.20,0005.58,0002.24
2023-07-28 06:42:00,SystemResetWarning,0835.5,5.01,000.00,029.1,025.4,000.0,037.5,030.3,31.5,0000.0,0003.19,0005.56,0002.24
2023-07-28 06:43:00,SystemResetWarning,0835.5,4.98,000.00,029.1,025.8,000.0,037.6,030.4,31.1,0000.0,0003.16,0006.25,0002.22
2023-07-28 06:44:00,SystemResetWarning,0835.6,5.00,000.00,029.1,026.2,000.0,037.6,030.5,31.0,0000.0,0003.16,0007.10,0002.20
2023-07-28 06:45:00,SystemResetWarning,0835.5,5.01,000.00,029.1,026.5,000.0,037.6,030.5,30.9,0000.0,0003.17,0007.19,0002.21
2023-07-28 06:46:00,SystemResetWarning,0835.6,5.01,000.00,029.1,026.9,000.0,037.6,030.6,30.5,0000.0,0003.21,0007.31,0002.26
2023-07-28 06:47:00,SystemResetWarning,0835.5,5.00,000.00,029.1,027.1,000.0,037.6,030.6,30.5,0000.0,0003.22,0007.33,0002.26
2023-07-28 06:48:00,SystemResetWarning,0835.5,4.99,000.00,029.1,027.3,000.0,037.6,030.7,30.4,0000.0,0003.19,0007.09,0002.26
2023-07-28 06:49:00,SystemResetWarning,0835.4,4.99,000.00,029.2,027.5,000.0,037.6,030.7,30.7,0000.0,0003.19,0007.08,0002.28
2023-07-28 06:50:00,SystemResetWarning,0835.3,5.01,000.00,029.2,027.7,000.0,037.6,030.8,30.9,0000.0,0003.18,0007.04,0002.29
2023-07-28 06:51:00,SystemResetWarning,0835.3,5.01,000.00,029.2,027.8,000.0,037.6,030.8,30.7,0000.0,0003.17,0006.94,0002.30
2023-07-28 06:52:00,SystemResetWarning,0835.2,5.00,000.00,029.2,027.9,000.0,037.6,030.9,30.1,0000.0,0003.20,0006.97,0002.31
2023-07-28 06:53:00,SystemResetWarning,0835.2,4.99,000.00,029.3,028.0,000.0,037.7,030.9,30.2,0000.0,0003.23,0007.47,0002.33
2023-07-28 06:54:00,SystemResetWarning,0835.2,5.00,000.00,029.3,028.1,000.0,037.7,031.0,30.5,0000.0,0003.25,0007.36,0002.35
2023-07-28 06:55:00,SystemResetWarning,0835.3,4.99,000.00,029.3,028.2,000.0,037.7,031.0,30.5,0000.0,0003.24,0007.70,0002.36
2023-07-28 06:56:00,SystemResetWarning,0835.3,5.01,000.00,029.4,028.3,000.0,037.7,031.0,29.9,0000.0,0003.24,0007.98,0002.35
2023-07-28 06:57:00,SystemResetWarning,0835.3,4.99,000.00,029.4,027.4,000.0,037.7,031.0,29.6,0000.0,0003.19,0007.98,0002.30
2023-07-28 06:58:00,SystemResetWarning,0835.2,5.00,000.00,029.3,025.8,000.0,037.6,030.8,29.9,0000.0,0003.18,0008.57,0002.29
2023-07-28 06:59:00,SystemResetWarning,0835.1,5.01,000.00,029.3,025.3,000.0,037.5,030.5,29.8,0000.0,0003.21,0008.79,0002.30
